Find Weili Kongjian 1-S3

NORAD ID: 53757 Int'l Des: 2022-108 Owner: CENTI Country: CN Constellation: future-navigation operational
LEOCIRCULAR

实时位置

正在加载3D地球...

关于 Weili Kongjian 1-S3

正在加载描述...

即将过境

Passes for default location (London). Set your location on the main map for personalized predictions.

高度历史

Loading altitude history...

两行轨道根数

1 53757U 22108A 26106.92003256 .00000244 00000-0 87193-4 0 9994
2 53757 53.5333 308.5915 0009603 171.3263 188.7880 14.61188523192576
Epoch: Apr 16, 2026 • Age: 9 hours

当前状态

高度 683.1 km
速度 7.52 km/s
星下点 18.19°N, 162.57°E
发射日期 Sep 6, 2022
运行时间 3.6 years
类型 other

技术详情

分类 Payload
质量 97.00 kg
干质量 97.00 kg
总质量 97.00 kg
长度 1.00 m
直径 0.50 m
跨度 2.00 m
形状 Box + 2 pan
制造商 IMICAS
平台类型 WN100
阶段状态 In Orbit
所有者/国家 CENTI/CN

Most Searched